OE7MFI-13 Weather Reports


Display with metric or nautical units.
time (UTC)temp
F
wind
direction
speed
MPH
gust
MPH
rain 1hr
in
rain 24hr
in
rain mn
in
humidity
%
barometer
mb
20260507210203 47 0.0 0.0 0.00 0.00 0.00 92
20260507205211 47 0.0 0.0 0.00 0.00 0.00 92
20260507204223 47 0.0 0.0 0.00 0.00 0.00 91
20260507203231 47 0.0 0.0 0.00 0.00 0.00 91
20260507202225 47 0.0 0.0 0.00 0.00 0.00 91
20260507201210 47 0.0 0.0 0.00 0.00 0.00 90
20260507200203 47 0.0 0.0 0.00 0.00 0.00 90
20260507195211 48 0.0 0.0 0.00 0.00 0.00 90
20260507194204 47 0.0 0.0 0.00 0.00 0.00 90
20260507193211 48 0.0 0.0 0.00 0.00 0.00 89
20260507192204 48 0.0 0.0 0.00 0.00 0.00 89
20260507191234 48 0.0 0.0 0.00 0.00 0.00 89
20260507190203 48 0.0 0.0 0.00 0.00 0.00 88
20260507185232 49 0.0 0.0 0.00 0.00 0.00 88
20260507184203 49 251 0.0 0.0 0.00 0.00 0.00 88
20260507183211 50 264 0.0 0.0 0.00 0.00 0.00 87
20260507182203 50 0.0 0.0 0.00 0.00 0.00 86
20260507181210 50 0.0 0.0 0.00 0.00 0.00 84
20260507180204 51 342 0.0 0.0 0.00 0.00 0.00 88
20260507175211 53 223 0.0 1.0 0.00 0.00 0.00 85
20260507174245 52 0.0 0.0 0.00 0.00 0.00 84
20260507173211 53 0.0 0.0 0.00 0.00 0.00 83
20260507172204 54 0.0 0.0 0.00 0.00 0.00 80
20260507171210 54 0.0 0.0 0.00 0.00 0.00 78
20260507170204 54 0.0 0.0 0.00 0.00 0.00 78
20260507165210 55 0.0 0.0 0.00 0.00 0.00 78
20260507164203 54 0.0 0.0 0.00 0.00 0.00 79
20260507163233 54 0.0 0.0 0.00 0.00 0.00 76
20260507162223 53 0.0 0.0 0.00 0.00 0.00 74
20260507161226 54 0.0 0.0 0.00 0.00 0.00 74
20260507160252 54 0.0 0.0 0.00 0.00 0.00 74
20260507155211 54 0.0 0.0 0.00 0.00 0.00 78
20260507154202 54 0.0 0.0 0.00 0.00 0.00 76
20260507153227 53 0.0 0.0 0.00 0.00 0.00 76
20260507152238 52 0.0 0.0 0.00 0.00 0.00 78
20260507151211 51 0.0 0.0 0.00 0.00 0.00 82
20260507150244 51 228 0.0 0.0 0.00 0.00 0.00 85
20260507145210 51 237 0.0 0.0 0.00 0.00 0.00 86
20260507144204 51 185 0.0 0.0 0.00 0.00 0.00 84
20260507143211 51 286 0.0 0.0 0.00 0.00 0.00 83
20260507142203 51 0.0 0.0 0.00 0.00 0.00 83
20260507141227 51 16 0.0 0.0 0.00 0.00 0.00 83
20260507140203 52 291 0.0 1.0 0.00 0.00 0.00 81
20260507135227 52 352 0.0 1.0 0.00 0.00 0.00 81
20260507134202 53 262 0.0 1.0 0.00 0.00 0.00 78
20260507133230 55 180 0.0 1.0 0.00 0.00 0.00 71
20260507132224 56 241 0.0 1.0 0.00 0.00 0.00 68
20260507131251 57 323 0.0 1.0 0.00 0.00 0.00 66
20260507130205 58 274 0.0 0.0 0.00 0.00 0.00 68
20260507125210 58 270 0.0 0.0 0.00 0.00 0.00 68
20260507124203 57 30 0.0 1.0 0.00 0.00 0.00 65
20260507123211 58 184 0.0 1.0 0.00 0.00 0.00 60
20260507122205 59 233 0.0 0.0 0.00 0.00 0.00 61
20260507121211 58 227 0.0 0.0 0.00 0.00 0.00 62
20260507120204 56 263 0.0 0.0 0.00 0.00 0.00 64
20260507115211 57 265 0.0 0.0 0.00 0.00 0.00 63
20260507114202 57 76 0.0 0.0 0.00 0.00 0.00 68
20260507113227 56 62 0.0 0.0 0.00 0.00 0.00 69
20260507112202 53 301 0.0 0.0 0.00 0.00 0.00 75
20260507111211 52 254 0.0 1.0 0.00 0.00 0.00 74
20260507110203 52 255 0.0 1.0 0.00 0.00 0.00 77
20260507105210 53 91 0.0 1.0 0.00 0.00 0.00 74
20260507104219 53 288 0.0 1.0 0.00 0.00 0.00 75
20260507103211 53 119 0.0 1.0 0.00 0.00 0.00 73
20260507102202 53 208 0.0 1.0 0.00 0.00 0.00 67
20260507101232 55 157 0.0 1.0 0.00 0.00 0.00 65
20260507100202 57 227 1.0 2.0 0.00 0.00 0.00 64
20260507095211 56 241 0.0 1.0 0.00 0.00 0.00 68
20260507094204 54 262 1.0 1.0 0.00 0.00 0.00 69
20260507093210 56 286 0.0 1.0 0.00 0.00 0.00 62
20260507092202 58 284 0.0 1.0 0.00 0.00 0.00 59
20260507091211 57 288 1.0 1.0 0.00 0.00 0.00 60
20260507090225 57 285 0.0 1.0 0.00 0.00 0.00 63
20260507085211 56 92 0.0 1.0 0.00 0.00 0.00 64
20260507084203 55 255 0.0 1.0 0.00 0.00 0.00 64
20260507083211 55 272 0.0 1.0 0.00 0.00 0.00 65
20260507082204 55 245 0.0 1.0 0.00 0.00 0.00 67
20260507081212 55 260 0.0 1.0 0.00 0.00 0.00 67
20260507080223 55 278 0.0 1.0 0.00 0.00 0.00 67
20260507075212 54 262 0.0 0.0 0.00 0.00 0.00 67
20260507074205 54 255 0.0 0.0 0.00 0.00 0.00 70
20260507073210 54 298 0.0 1.0 0.00 0.00 0.00 72
20260507072218 54 262 0.0 0.0 0.00 0.00 0.00 73
20260507071214 53 0.0 0.0 0.00 0.00 0.00 75
20260507070203 52 0.0 0.0 0.00 0.00 0.00 79
20260507065211 53 0.0 0.0 0.00 0.00 0.00 78
20260507064204 52 0.0 0.0 0.00 0.00 0.00 81
20260507063211 52 0.0 0.0 0.00 0.00 0.00 82
20260507062204 51 0.0 0.0 0.00 0.00 0.00 83
20260507061211 49 0.0 0.0 0.00 0.00 0.00 87
20260507060202 48 0.0 0.0 0.00 0.00 0.00 87
20260507055231 48 232 0.0 0.0 0.00 0.00 0.00 87
20260507054204 49 0.0 0.0 0.00 0.00 0.00 87
20260507053210 48 0.0 0.0 0.00 0.00 0.00 88
20260507052306 48 256 0.0 0.0 0.00 0.00 0.00 88
20260507051210 48 0.0 0.0 0.00 0.00 0.00 89
20260507050223 47 0.0 0.0 0.00 0.00 0.00 89
20260507045210 46 0.0 0.0 0.00 0.00 0.00 89
20260507044204 46 109 0.0 0.0 0.00 0.00 0.00 89
20260507043212 46 0.0 0.0 0.00 0.00 0.00 89
20260507042202 46 0.0 0.0 0.00 0.00 0.00 89
20260507041210 46 0.0 0.0 0.00 0.00 0.00 89
20260507040202 46 0.0 0.0 0.00 0.00 0.00 89
20260507035210 46 0.0 0.0 0.00 0.00 0.00 90
20260507034204 45 0.0 0.0 0.00 0.00 0.00 90
20260507033211 45 0.0 0.0 0.00 0.00 0.00 90
20260507032224 45 0.0 0.0 0.00 0.00 0.00 89
20260507031211 46 0.0 0.0 0.00 0.00 0.00 89
20260507030203 46 0.0 0.0 0.00 0.00 0.00 89
20260507025226 46 0.0 0.0 0.00 0.00 0.00 89
20260507024202 46 0.0 0.0 0.00 0.00 0.00 89
20260507023252 46 0.0 0.0 0.00 0.00 0.00 89
20260507022222 46 0.0 0.0 0.00 0.00 0.00 90
20260507021213 45 0.0 0.0 0.00 0.00 0.00 90
20260507020244 45 75 0.0 0.0 0.00 0.00 0.00 90
20260507015210 45 0.0 0.0 0.00 0.00 0.00 89
20260507014205 45 0.0 0.0 0.00 0.00 0.00 89
20260507013230 45 0.0 0.0 0.00 0.00 0.00 90
20260507012204 45 246 0.0 0.0 0.00 0.00 0.00 90
20260507011212 45 0.0 0.0 0.00 0.00 0.00 89
20260507010202 45 0.0 0.0 0.00 0.00 0.00 89
20260507005212 45 0.0 0.0 0.00 0.00 0.00 89
20260507004224 45 0.0 0.0 0.00 0.00 0.00 89
20260507003211 45 0.0 0.0 0.00 0.00 0.00 89
20260507002222 45 0.0 0.0 0.00 0.00 0.00 89
20260507001210 46 0.0 0.0 0.00 0.00 0.00 87
20260507000204 46 0.0 0.0 0.00 0.00 0.00 88
20260506235210 46 0.0 0.0 0.00 0.00 0.00 88
20260506234203 46 0.0 0.0 0.00 0.00 0.00 87
20260506233230 47 0.0 0.0 0.00 0.00 0.00 87
20260506232203 48 0.0 0.0 0.00 0.00 0.00 85
20260506231210 48 0.0 0.0 0.00 0.00 0.00 85
20260506230204 49 0.0 0.0 0.00 0.00 0.00 84
20260506225251 49 0.0 0.0 0.00 0.00 0.00 83
20260506224202 50 0.0 0.0 0.00 0.00 0.00 84
20260506223210 49 0.0 0.0 0.00 0.00 0.00 84
20260506222202 50 0.0 0.0 0.00 0.00 0.00 83
20260506221210 50 0.0 0.0 0.00 0.00 0.00 83
20260506220205 50 0.0 0.0 0.00 0.00 0.00 82
20260506215230 50 0.0 0.0 0.00 0.00 0.00 82
20260506214202 50 0.0 0.0 0.00 0.00 0.00 82
20260506213210 50 0.0 0.0 0.00 0.00 0.00 82
20260506212202 51 50 0.0 1.0 0.00 0.00 0.00 78
20260506211210 51 87 0.0 0.0 0.00 0.00 0.00 82